Flag for U.S.A. Weather past 2 weeks in Chattanooga, Tennessee, U.S.A.

Now
68 °F

Overcast.


Feels Like: 68 °F
Forecast: 60 / 80 °F
Wind: No wind

Location: Lovell Field

Current Time: Sep 18, 2014 at 12:43:02 AM

Latest Report: Sep 17, 2014 at 11:53 PM


Visibility: 10 mi

Pressure: 29.95 "Hg

Humidity: 65%

Dew point: 56 °F

Location of ChattanoogaLocation

Historic Weather in Chattanooga — Graph

°F

Chattanooga temperature yesterday

Maximum temperature yesterday: 79 °F (at 4:53 PM)
Minimum temperature yesterday: 64 °F (at 5:53 AM)
Average temperature yesterday: 71 °F

Past Weeks' High & Low Weather Summary

 TemperatureHumidityPressure
High90 °F (Sep 6, 3:53 PM)94% (Sep 6, 6:53 AM)30.22 "Hg (Sep 6, 6:53 AM)
Low64 °F (Sep 17, 5:53 AM)43% (Sep 6, 3:53 PM)29.92 "Hg (Sep 17, 6:53 PM)
Average76 °F75%30.06 "Hg
* Reported Sep 2 10:53 PM — Sep 17 10:53 PM, Chattanooga, Weather by CustomWeather, © 2014

Note: Actual official high and low records may vary slightly from our data, if they occured in-between our weather recording intervals... More about our weather records

Advertising

Chattanooga weather history for previous 24 hours

 ConditionsComfort  
Time TempWeatherWind HumidityBarometerVisibility
10:53 PM
Sep 17
67 °FOvercast.No wind71%29.96 "Hg10 mi
9:53 PM67 °FPassing clouds.5 mph71%29.93 "Hg10 mi
8:53 PM70 °FPassing clouds.6 mph59%29.94 "Hg10 mi
7:53 PM72 °FPartly sunny.7 mph55%29.94 "Hg10 mi
6:53 PM76 °FPartly sunny.9 mph50%29.92 "Hg10 mi
5:53 PM78 °FBroken clouds.8 mph48%29.93 "Hg10 mi
4:53 PM79 °FBroken clouds.5 mph47%29.93 "Hg10 mi
3:53 PM77 °FBroken clouds.No wind48%29.93 "Hg10 mi
2:53 PM77 °FBroken clouds.No wind48%29.94 "Hg10 mi
1:53 PM76 °FBroken clouds.5 mph50%29.96 "Hg10 mi
12:53 PM74 °FBroken clouds.No wind53%29.98 "Hg10 mi
11:53 AM73 °FPartly sunny.5 mph55%29.98 "Hg10 mi
10:53 AM69 °FPartly sunny.8 mph68%29.97 "Hg10 mi
9:53 AM69 °FScattered clouds.8 mph68%29.98 "Hg10 mi
8:53 AM67 °FPassing clouds.7 mph76%29.99 "Hg10 mi
7:53 AM65 °FPassing clouds.5 mph78%29.99 "Hg10 mi
6:53 AM66 °FPassing clouds.3 mph78%29.99 "Hg10 mi
5:53 AM64 °FPassing clouds.5 mph84%30.00 "Hg10 mi
4:53 AM65 °FClear.6 mph85%29.99 "Hg10 mi
3:53 AM66 °FClear.3 mph81%29.99 "Hg10 mi
2:53 AM66 °FClear.5 mph84%30.00 "Hg10 mi
1:53 AM69 °FPassing clouds.8 mph79%30.00 "Hg10 mi
12:53 AM70 °FPassing clouds.9 mph76%30.01 "Hg10 mi
Weather by CustomWeather, © 2014

See weather overviewHow to use our weather pages